< < Back
Terminal Aerodrome Forecast


Current Version              Previous Versions:   1  2  3  4  5  6  7  8  9  

Terminal Aerodrome Forecast

182
FTUS44 KOHX 030700 AAA
TAFCSV
TAF AMD
KCSV 030710Z 0307/0406 VRB03KT P6SM OVC050
     FM030900 VRB03KT 4SM BR VCSH OVC006
     FM031200 18007KT 2SM -SHRA BR OVC003
     FM031800 21013G20KT 2SM -SHRA BR OVC003=

Latest METAR

371
SAUS70 KWBC 030700 RRD
MTRCSV
METAR KCSV 030653Z AUTO VRB03KT 10SM OVC050 06/M01 A3019 RMK AO2 SLP227
T00611006


USA.gov is the U.S. government's official web portal to all federal, state and local government web resources and services.